Temperature
26 25 25 24 22 20 21 23 23 23 22 23 23 22 21 20 20 19 19 19 19 19 19 19 19 19 19 19 19 19 19 19 19 19 19 18 18 18 18 18 18 18 18 18 18 18 18 17 17
26 26 25 24 21 20 22 23 23 23 23 23 23 21 20 19 19 19 19 19 19 19 19 19 19 19 19 19 19 19 19 19 19 18 18 18 18 18 18 18 18 18 17 18 18 17 17 17 17
26 26 26 21 21 21 23 23 23 23 24 23 22 21 20 19 19 20 20 19 19 19 19 19 19 19 19 19 19 19 19 19 19 18 18 18 18 18 18 18 18 18 18 17 17 17 17 17 17
27 26 25 22 23 23 23 23 24 23 24 23 22 21 20 20 21 21 20 20 20 19 19 19 19 19 19 19 19 19 19 19 18 18 18 18 18 18 18 18 18 17 17 17 17 17 17 17 17
27 27 22 22 23 24 24 24 24 23 23 22 22 20 20 20 21 21 20 20 20 20 19 19 19 19 19 19 19 19 19 18 18 18 18 18 18 18 18 18 18 18 17 17 17 17 17 17 17
28 23 21 22 24 24 25 25 24 23 23 22 21 20 19 20 21 21 20 20 20 20 19 19 19 19 19 19 19 19 18 18 18 18 18 18 18 18 18 18 18 18 17 17 17 17 17 17 17
26 22 22 23 23 24 25 25 24 23 23 22 22 19 19 20 20 20 20 20 19 19 19 19 19 19 19 19 19 19 18 18 18 18 18 18 18 18 18 18 18 18 17 17 17 17 17 17 17
28 21 23 23 24 25 25 25 24 24 23 23 22 20 19 20 20 20 20 19 19 19 19 19 19 19 19 19 19 18 18 18 18 18 18 18 18 18 18 18 18 18 17 17 17 17 17 17 17
27 22 23 24 24 25 25 25 25 24 24 23 23 22 22 21 20 20 20 19 19 19 19 19 19 19 19 19 18 18 18 18 18 18 18 18 18 18 18 18 18 18 17 17 17 17 17 17 17
26 23 25 25 25 25 25 25 25 24 23 22 22 22 22 21 20 20 20 20 20 20 19 19 19 19 19 19 18 18 18 18 18 18 18 18 18 18 18 18 18 18 17 17 17 17 17 17 17
26 25 25 26 27 26 26 25 25 24 22 22 22 22 21 21 20 20 20 20 20 20 20 19 19 19 19 19 19 19 18 18 18 18 18 18 18 18 18 18 18 18 17 17 17 17 17 17 17
26 26 26 27 27 27 26 25 24 24 25 25 24 23 22 21 21 20 21 20 20 20 20 20 19 19 19 19 19 19 18 18 18 18 18 18 18 18 18 18 18 17 17 17 17 17 17 17 17
26 26 27 27 27 26 26 25 24 24 25 25 23 22 22 21 21 21 21 20 20 20 20 20 19 19 19 19 18 18 18 18 18 18 18 18 18 18 18 18 17 17 17 17 17 17 17 17 17
26 26 26 27 27 26 25 24 24 24 24 23 22 22 22 22 21 21 20 20 20 20 20 19 19 19 19 19 18 18 18 18 18 18 18 18 18 18 18 18 17 17 17 17 17 17 17 17 17
27 25 25 26 26 26 25 24 23 23 23 22 22 22 21 21 21 21 21 21 20 20 20 19 19 19 19 18 18 18 18 18 18 18 18 18 17 17 17 17 17 17 17 17 17 17 17 17 17
25 25 25 26 25 25 25 24 23 23 23 22 21 21 21 21 21 21 21 21 20 20 20 19 19 19 19 18 18 18 18 18 18 18 18 17 17 17 17 17 17 17 17 17 17 17 17 17 17
24 24 25 25 25 25 25 24 23 23 22 21 21 21 21 21 21 21 21 21 20 20 20 19 19 19 19 18 18 18 18 18 18 18 17 17 17 17 17 17 17 17 17 17 17 17 17 17 17
25 25 25 25 25 25 24 23 22 22 22 21 21 21 21 21 21 21 21 21 20 20 20 19 19 19 18 18 18 18 18 18 18 18 18 17 17 17 17 17 17 17 17 17 17 17 17 17 17
25 25 24 24 25 24 23 23 22 22 22 21 21 21 21 21 21 21 21 20 20 20 19 19 19 19 18 18 18 18 18 18 18 18 18 17 17 17 17 17 17 17 17 17 17 17 17 17 17
25 25 25 24 24 24 23 23 22 22 21 21 21 21 21 21 21 21 21 20 20 20 19 19 19 18 18 18 18 18 18 18 18 18 17 17 17 17 17 17 17 17 17 17 17 17 17 17 17
25 25 25 25 24 23 24 23 22 22 22 22 22 22 21 21 21 21 21 20 20 20 19 19 19 18 18 18 18 18 18 18 17 17 18 17 17 17 17 17 17 17 17 17 17 17 17 17 17
25 25 25 25 23 21 23 22 22 20 20 20 21 21 21 21 21 21 21 20 20 20 19 19 19 18 18 18 18 18 18 18 18 18 18 18 17 17 17 17 17 17 17 17 17 17 17 17 17
25 24 24 23 22 21 21 21 21 20 21 20 20 21 21 21 21 21 21 21 20 20 19 19 19 18 18 18 18 18 18 18 18 18 18 18 17 17 17 17 17 17 17 17 17 17 17 17 17
25 23 21 19 19 21 22 22 21 20 21 21 20 21 21 21 21 21 21 20 20 20 19 19 19 19 18 18 18 18 18 18 18 18 18 18 17 17 17 17 17 17 17 17 17 17 17 17 17
23 21 21 21 20 21 20 21 20 21 21 21 21 21 21 22 21 21 21 20 20 20 19 19 19 19 18 18 18 18 18 17 17 18 18 17 17 17 17 17 17 17 17 17 17 17 17 17 17
23 22 21 22 21 20 20 21 21 21 21 22 22 22 22 22 21 21 21 21 20 20 19 19 19 19 18 18 18 18 18 17 17 18 17 17 17 17 17 17 17 17 17 17 17 17 17 17 17
23 21 20 18 20 20 20 21 21 21 21 21 21 21 21 22 21 21 21 21 20 20 19 19 19 19 18 18 18 18 18 18 17 17 17 17 17 17 17 17 17 17 17 17 17 17 17 17 17
22 18 18 19 20 21 22 21 21 22 21 20 20 20 21 22 21 21 21 21 20 20 19 19 19 19 18 18 18 18 18 17 17 17 17 17 17 17 17 17 17 17 17 17 17 17 17 16 16
22 20 17 16 18 19 21 21 21 20 20 20 20 21 21 22 22 21 21 21 20 20 19 19 19 19 18 18 18 18 18 18 17 17 17 17 17 17 17 17 17 17 17 17 17 16 16 16 16
24 21 19 21 19 17 19 20 21 20 20 20 21 21 22 22 22 22 21 21 20 20 19 19 19 19 18 18 18 18 18 18 17 17 17 17 17 17 17 16 16 16 16 16 16 16 16 16 16
Wind_Speed
2 4 3 2 6 7 5 5 2 3 3 3 6 7 7 4 2 4 3 9 10 8 10 13 14 14 15 15 15 15 15 15 15 15 15 15 15 14 14 14 14 14 15 15 15 15 15 15 15
3 3 2 4 6 5 4 4 4 4 4 5 7 7 7 5 5 7 5 8 10 10 10 12 14 14 14 14 14 14 14 14 14 14 14 14 14 14 14 14 14 15 15 15 15 15 14 15 15
3 2 4 5 5 4 3 1 5 5 4 3 4 5 5 5 6 5 7 11 10 9 10 13 15 14 14 14 13 14 13 13 13 13 13 13 13 14 14 14 14 14 14 14 15 15 14 14 14
3 4 6 7 5 0 3 4 5 5 5 5 5 6 4 4 5 7 12 12 11 7 9 13 15 14 14 13 13 13 12 12 12 12 12 12 13 13 13 13 13 13 13 13 14 14 14 14 14
3 5 7 5 3 2 2 3 2 4 3 4 5 5 4 4 10 13 12 12 11 7 9 12 14 14 13 13 12 12 12 11 11 11 12 12 12 13 12 12 12 12 12 13 13 13 13 13 13
5 6 6 3 2 2 1 2 3 5 5 5 5 5 3 5 10 11 11 10 9 8 8 11 14 13 13 12 12 11 11 11 11 11 11 11 11 12 12 12 12 12 11 11 12 12 12 11 12
5 5 4 2 1 0 2 2 3 5 5 4 4 5 3 4 7 10 9 9 7 7 7 8 10 11 12 12 11 11 10 10 10 10 10 10 10 10 10 11 11 11 11 10 11 11 11 11 12
5 6 4 1 2 2 3 3 3 5 4 5 5 7 6 6 10 10 9 8 7 5 5 6 7 8 9 9 11 10 10 10 10 10 10 10 10 10 9 9 10 11 10 10 10 10 10 11 11
4 5 2 3 4 3 4 4 2 3 6 3 3 5 8 15 14 12 9 7 6 6 4 4 5 6 7 7 9 9 9 9 9 9 9 8 8 8 7 8 9 9 9 9 9 10 10 10 9
5 3 4 4 5 5 5 4 5 5 4 3 5 8 15 16 14 13 12 11 9 8 6 4 5 5 6 6 7 6 6 7 7 7 8 8 7 6 6 6 7 7 7 7 7 8 9 8 7
3 3 3 2 3 5 5 4 4 7 4 6 9 15 17 15 12 12 11 10 9 8 8 6 5 6 5 4 6 5 5 6 6 7 7 7 6 5 5 4 4 5 5 5 6 7 6 5 5
2 2 2 1 2 4 5 5 4 4 5 7 14 18 17 16 14 13 12 10 8 8 8 7 6 5 5 4 5 5 5 4 4 5 6 5 4 3 3 3 3 3 3 4 4 4 4 4 4
1 3 2 1 2 4 5 4 4 1 4 11 15 15 14 14 11 8 8 8 8 8 8 7 7 6 5 4 4 4 4 4 4 4 5 5 4 3 2 2 2 2 2 2 2 3 3 3 3
1 2 3 1 2 3 6 2 3 2 9 13 13 12 12 12 10 8 8 8 9 9 8 6 6 6 5 4 3 4 5 5 5 5 6 7 6 4 3 2 2 2 2 1 2 2 2 2 2
2 4 6 4 3 3 6 3 1 4 10 11 11 10 9 8 8 9 10 9 9 8 7 7 7 6 6 5 5 5 5 6 5 6 7 7 7 6 4 2 2 2 3 2 2 2 2 2 1
5 5 4 4 2 3 6 2 2 6 10 9 9 8 8 7 7 7 8 8 7 7 7 8 8 7 7 6 5 5 6 6 6 6 7 8 8 8 5 3 3 3 3 3 2 2 1 1 1
7 4 3 5 3 2 3 3 1 5 8 7 7 6 6 5 5 5 6 8 8 8 8 8 6 7 7 6 5 4 5 5 6 6 6 7 8 9 7 4 4 4 3 3 2 2 2 2 1
1 2 3 4 3 3 2 1 0 5 6 6 5 5 5 5 5 5 6 6 6 6 6 7 6 6 6 5 4 3 2 2 4 5 6 7 8 8 7 5 5 5 3 2 2 2 2 1 2
2 1 2 3 2 3 2 1 1 3 4 5 5 5 5 5 3 4 6 6 6 5 6 6 6 5 4 3 4 4 3 3 3 4 6 7 7 7 7 4 4 4 4 4 4 2 2 1 1
2 0 1 3 4 3 3 3 2 2 4 4 5 6 6 4 3 4 5 6 6 6 5 5 6 6 5 4 3 3 3 2 3 3 4 6 7 7 6 5 4 4 3 3 4 3 2 2 2
1 3 3 1 3 6 4 5 4 2 0 1 3 4 4 6 6 6 6 6 6 6 6 6 6 6 6 5 3 3 2 1 1 1 2 4 7 8 7 6 5 5 4 5 5 5 5 3 2
3 4 4 3 4 3 3 1 5 3 2 2 3 3 4 5 5 5 6 6 6 6 5 5 6 6 5 6 5 5 4 3 3 3 3 3 6 7 7 7 7 6 5 5 5 5 4 4 4
4 3 4 4 5 3 5 2 7 3 3 5 4 5 4 4 5 5 5 6 5 5 5 5 5 5 5 5 6 5 3 3 2 2 2 3 3 5 6 7 6 5 5 6 6 5 6 5 5
5 7 8 7 6 3 3 0 6 4 5 5 4 4 5 5 5 4 3 4 4 4 4 4 5 4 5 5 5 5 5 4 3 3 3 2 2 2 4 5 5 5 5 6 6 6 6 6 5
6 7 5 6 5 3 4 1 8 7 6 5 5 5 6 6 6 5 5 4 4 5 5 4 5 5 5 5 4 4 4 4 5 4 4 3 2 2 3 3 4 4 4 5 5 5 5 6 5
5 9 8 4 4 4 4 3 7 6 4 3 2 4 5 6 5 6 6 5 5 5 5 4 5 5 5 5 4 3 4 3 3 4 3 3 3 3 3 3 3 3 3 3 3 3 4 4 4
7 4 7 8 3 1 5 6 7 2 3 1 2 4 5 6 6 5 5 5 4 4 4 5 5 4 4 4 4 3 3 3 3 3 3 2 2 2 2 3 3 2 2 2 3 2 2 2 3
6 10 7 6 5 1 5 5 5 5 4 2 3 5 5 5 5 4 4 5 4 4 3 3 4 4 4 4 4 3 3 2 3 2 2 2 2 2 2 2 2 2 1 2 2 2 2 2 1
5 6 7 6 6 6 2 7 6 7 6 6 5 5 5 5 5 5 4 3 3 3 3 3 4 3 4 4 3 3 2 2 2 2 2 2 2 2 2 2 2 2 2 2 2 2 2 2 1
5 8 8 6 4 5 5 7 5 5 5 4 4 4 4 5 4 4 3 3 3 3 3 3 4 4 3 4 3 3 2 2 1 1 1 2 2 2 2 3 2 2 2 2 2 2 2 2 2
Wind_Direction
200 143 140 92 57 50 30 358 33 64 61 69 89 88 96 79 108 135 121 132 128 129 136 132 128 122 117 113 110 108 107 107 107 108 108 109 108 108 107 107 107 107 106 105 104 105 105 106 107
155 150 102 61 74 62 7 354 64 71 126 116 85 79 77 71 75 105 123 134 130 131 132 133 131 126 122 118 114 112 111 111 111 110 110 110 110 110 108 107 107 107 105 104 105 104 105 107 106
164 143 77 65 75 122 140 136 110 95 88 73 78 69 82 109 122 129 142 135 124 126 133 139 134 130 126 122 119 116 115 115 114 113 112 111 109 109 108 108 107 107 107 107 105 104 105 108 108
115 55 53 65 58 358 168 167 135 108 64 55 87 73 68 96 133 134 135 134 127 124 136 142 136 133 130 126 123 120 119 117 116 115 114 112 111 111 110 109 108 107 107 107 106 106 105 105 108
67 72 58 48 22 17 116 165 132 100 83 70 86 88 58 43 108 125 133 135 134 131 137 143 140 138 135 132 129 126 124 121 119 117 116 115 114 114 112 111 111 108 107 107 107 107 106 105 107
57 64 73 55 12 20 79 119 104 92 96 91 88 90 60 104 121 132 133 133 134 136 136 144 144 142 139 136 133 132 129 126 123 119 118 118 117 115 115 115 114 111 110 109 110 108 106 106 110
91 82 103 120 94 24 161 114 121 122 117 120 112 97 88 122 128 128 124 123 123 127 127 133 141 145 143 141 139 138 134 131 129 125 123 121 119 117 116 116 114 113 111 109 109 108 105 105 112
111 95 78 92 156 206 151 120 124 128 119 119 115 135 164 161 131 119 114 112 115 116 117 121 127 135 140 145 145 144 142 138 134 132 130 126 123 119 116 114 115 114 111 108 108 108 105 107 113
83 74 109 195 183 190 153 139 141 101 113 112 111 145 149 137 132 128 126 124 137 145 134 128 126 130 138 145 151 148 146 142 136 134 130 114 105 109 112 118 117 116 113 109 108 107 106 105 109
74 104 221 211 190 171 162 154 153 119 117 103 80 99 127 139 145 150 156 162 167 170 168 153 145 145 148 154 140 133 128 126 121 117 117 114 111 110 112 117 116 113 109 106 102 102 98 97 99
93 172 233 242 184 148 148 149 141 134 178 190 160 147 146 151 157 164 170 173 176 175 174 168 165 161 156 140 137 127 121 119 120 122 125 122 114 103 98 91 87 89 90 83 85 86 88 96 103
77 277 226 244 133 134 149 145 136 175 211 167 152 152 154 162 172 176 177 176 170 174 182 173 170 167 164 150 144 139 134 131 132 138 143 137 125 117 112 105 95 88 88 88 88 91 91 95 113
69 301 302 234 122 133 121 126 140 170 113 123 135 149 162 171 176 176 172 167 171 184 186 180 174 174 166 153 155 155 154 152 157 166 173 168 156 153 147 144 138 127 119 106 98 96 89 93 105
308 314 322 342 106 126 121 100 103 149 126 131 144 160 171 176 175 170 170 175 182 189 187 179 180 177 170 166 165 167 169 169 172 188 193 189 180 174 171 176 179 177 169 154 132 123 111 102 113
18 16 11 29 72 117 110 51 241 147 134 142 156 166 172 175 176 183 183 183 186 186 182 180 187 180 180 177 180 179 179 177 182 194 200 199 195 189 184 191 207 212 190 167 143 119 114 118 122
42 44 14 324 57 118 120 220 253 143 146 157 165 169 172 175 184 189 182 181 179 177 179 185 191 182 183 184 182 178 180 181 191 197 202 206 203 198 191 200 219 211 176 161 154 143 126 120 135
29 26 340 322 7 92 124 214 226 146 152 162 169 174 172 173 181 185 181 181 179 177 177 181 183 177 183 181 171 175 176 183 190 194 203 207 206 202 196 204 213 197 172 169 178 160 156 166 178
322 338 325 309 327 67 103 248 137 149 154 165 168 168 168 184 200 182 171 172 168 168 173 177 176 174 169 158 146 146 170 183 185 195 204 204 205 201 194 199 202 185 170 176 175 163 154 163 176
165 209 297 295 330 68 80 26 351 154 158 169 181 179 180 197 183 157 157 153 149 152 159 167 167 164 155 157 164 166 190 188 189 205 205 201 201 198 191 195 189 182 185 194 183 163 160 172 139
161 73 325 343 16 68 63 22 11 160 194 194 195 195 187 179 158 159 152 153 158 161 162 166 171 167 170 177 169 163 165 184 190 196 200 199 194 195 199 195 193 191 186 190 187 172 159 180 164
215 189 207 184 33 41 59 0 341 334 240 187 195 190 184 185 180 177 170 169 165 171 175 180 178 174 174 164 140 122 107 89 116 189 210 208 200 201 203 199 196 195 191 201 201 187 180 189 195
259 235 182 133 88 6 48 301 301 304 313 254 222 194 190 184 173 175 176 176 180 186 177 175 177 177 177 166 164 165 174 188 200 206 216 215 205 202 205 206 202 201 201 205 210 200 193 180 196
201 67 95 90 105 51 23 94 293 324 284 267 239 202 188 177 171 177 181 183 181 175 173 174 172 177 177 172 173 171 180 196 194 196 203 216 209 206 209 207 202 205 208 211 211 202 198 193 194
124 72 56 49 66 42 328 103 286 259 240 258 230 192 176 172 171 172 167 160 164 165 170 169 170 181 179 176 175 177 186 194 185 191 203 216 218 218 217 209 205 211 213 215 213 208 204 203 201
86 84 36 14 20 267 301 244 256 268 248 232 217 189 177 172 166 166 166 174 181 178 177 173 177 185 183 183 188 190 195 194 198 197 201 202 210 219 220 207 203 209 217 215 204 203 211 205 202
152 133 151 177 207 277 333 263 266 281 282 250 187 161 165 168 170 177 184 184 186 185 177 175 182 188 182 185 189 187 189 193 197 196 192 198 214 225 215 201 205 212 215 213 194 198 212 203 203
128 130 148 125 132 36 304 300 309 333 1 39 118 143 169 174 180 183 178 175 181 183 184 185 184 179 177 178 175 179 185 189 194 192 189 203 216 215 196 191 193 200 201 198 184 186 204 186 195
129 138 103 112 133 214 305 293 260 268 252 230 193 185 180 169 178 180 179 178 182 183 179 173 171 176 172 167 177 185 183 186 189 183 191 201 203 188 167 168 172 176 177 168 158 158 165 156 170
111 94 99 101 137 145 220 271 234 222 219 211 217 205 183 174 179 180 185 181 171 168 165 162 161 159 163 163 164 159 166 171 170 179 195 185 167 152 155 156 151 143 130 130 137 142 137 145 148
152 155 144 143 179 158 167 263 284 223 210 199 214 204 181 174 176 166 154 147 157 172 174 171 167 168 170 156 147 151 153 139 137 160 170 153 138 134 136 129 123 119 117 124 136 144 142 152 161
Height
1491 1491 1492 1494 1498 1512 1518 1512 1506 1506 1507 1508 1509 1510 1512 1516 1520 1526 1524 1525 1528 1530 1532 1534 1535 1537 1538 1539 1539 1540 1541 1541 1542 1543 1544 1544 1545 1546 1547 1548 1549 1549 1550 1551 1552 1553 1554 1555 1556
1492 1492 1495 1495 1510 1528 1524 1512 1509 1508 1509 1509 1510 1512 1514 1517 1518 1521 1523 1526 1529 1532 1534 1535 1537 1538 1540 1541 1541 1542 1543 1544 1544 1545 1546 1547 1548 1548 1549 1550 1551 1552 1553 1554 1554 1555 1556 1557 1558
1494 1494 1497 1501 1516 1526 1521 1512 1510 1509 1510 1510 1512 1514 1516 1519 1520 1522 1524 1527 1531 1533 1535 1537 1539 1540 1541 1543 1544 1544 1545 1546 1547 1548 1548 1549 1550 1551 1552 1552 1553 1554 1555 1556 1557 1558 1559 1560 1561
1495 1497 1499 1510 1519 1515 1512 1511 1510 1510 1511 1512 1514 1517 1519 1522 1523 1524 1526 1529 1532 1535 1537 1539 1541 1542 1543 1544 1545 1546 1547 1548 1549 1550 1551 1551 1552 1553 1554 1555 1556 1557 1558 1559 1560 1560 1561 1562 1563
1497 1498 1509 1521 1518 1512 1510 1510 1510 1511 1512 1514 1515 1519 1522 1524 1525 1527 1528 1531 1534 1536 1539 1541 1543 1544 1545 1546 1547 1548 1549 1550 1551 1552 1553 1553 1554 1555 1556 1557 1558 1559 1560 1561 1562 1563 1564 1565 1566
1499 1502 1522 1528 1520 1513 1511 1512 1512 1513 1515 1516 1518 1520 1524 1526 1527 1529 1531 1534 1536 1538 1540 1542 1544 1546 1547 1548 1549 1550 1551 1552 1553 1554 1555 1556 1557 1557 1558 1559 1560 1561 1562 1563 1564 1565 1566 1567 1568
1501 1510 1522 1523 1522 1517 1513 1513 1514 1514 1516 1518 1519 1522 1525 1527 1529 1531 1533 1535 1538 1540 1542 1544 1545 1547 1549 1550 1551 1552 1553 1554 1555 1556 1557 1558 1559 1559 1560 1561 1562 1563 1564 1565 1566 1567 1568 1570 1570
1502 1510 1520 1523 1521 1518 1513 1514 1514 1515 1517 1519 1520 1521 1525 1527 1530 1532 1535 1537 1539 1542 1544 1545 1546 1548 1550 1551 1553 1554 1555 1556 1557 1558 1559 1560 1561 1562 1562 1563 1564 1565 1566 1567 1568 1569 1571 1572 1572
1503 1516 1525 1520 1518 1515 1512 1514 1515 1516 1517 1519 1520 1522 1524 1527 1530 1533 1535 1538 1540 1542 1544 1546 1548 1549 1551 1553 1554 1555 1556 1557 1558 1559 1560 1561 1562 1563 1564 1565 1566 1567 1568 1569 1570 1571 1573 1574 1575
1505 1520 1517 1511 1510 1510 1512 1513 1515 1517 1518 1520 1521 1522 1524 1527 1530 1532 1535 1537 1540 1542 1544 1547 1548 1550 1552 1553 1555 1556 1557 1559 1560 1561 1562 1563 1564 1565 1566 1567 1568 1569 1570 1571 1572 1573 1574 1575 1576
1507 1512 1509 1507 1507 1509 1511 1513 1515 1517 1519 1518 1519 1521 1524 1527 1530 1533 1535 1537 1540 1543 1545 1547 1549 1551 1553 1554 1556 1557 1558 1560 1561 1562 1563 1564 1566 1566 1568 1569 1570 1571 1572 1573 1574 1575 1576 1577 1578
1508 1508 1507 1507 1508 1509 1511 1513 1516 1516 1516 1517 1519 1521 1524 1527 1530 1532 1535 1538 1541 1543 1545 1547 1549 1551 1553 1555 1556 1558 1559 1561 1562 1564 1565 1566 1567 1568 1569 1570 1571 1572 1573 1574 1575 1576 1577 1578 1579
1509 1508 1506 1507 1508 1509 1512 1514 1515 1516 1517 1518 1520 1523 1525 1528 1530 1534 1536 1539 1541 1543 1546 1548 1550 1552 1554 1555 1557 1559 1561 1562 1563 1565 1566 1567 1568 1569 1571 1572 1573 1574 1575 1576 1577 1577 1578 1579 1580
1509 1508 1507 1507 1508 1510 1512 1515 1516 1517 1518 1520 1522 1524 1526 1529 1531 1534 1536 1539 1541 1543 1546 1548 1550 1552 1554 1556 1557 1559 1561 1562 1564 1565 1567 1568 1569 1570 1571 1572 1574 1574 1575 1576 1577 1578 1579 1580 1581
1509 1510 1510 1509 1509 1512 1514 1519 1517 1517 1519 1521 1523 1525 1527 1530 1532 1534 1536 1538 1541 1543 1545 1548 1550 1552 1554 1555 1557 1559 1561 1562 1564 1565 1567 1568 1570 1571 1572 1573 1574 1575 1576 1577 1578 1579 1580 1580 1581
1511 1517 1523 1514 1511 1512 1517 1526 1517 1518 1519 1522 1524 1526 1528 1531 1533 1535 1537 1539 1541 1543 1545 1547 1549 1551 1553 1554 1556 1558 1560 1562 1564 1565 1567 1568 1569 1571 1572 1573 1574 1575 1576 1577 1578 1579 1580 1580 1581
1523 1530 1528 1520 1513 1513 1517 1522 1518 1519 1520 1523 1525 1527 1529 1531 1533 1535 1537 1539 1541 1543 1544 1546 1548 1550 1552 1554 1555 1557 1559 1561 1563 1564 1566 1567 1569 1570 1571 1573 1574 1575 1576 1576 1577 1578 1579 1580 1581
1531 1530 1528 1526 1517 1516 1520 1521 1519 1520 1521 1523 1525 1527 1529 1531 1532 1534 1536 1538 1540 1542 1544 1545 1547 1549 1551 1553 1554 1556 1558 1560 1562 1563 1565 1566 1568 1569 1571 1572 1573 1574 1575 1576 1577 1578 1579 1579 1580
1523 1527 1529 1524 1517 1519 1523 1524 1522 1521 1522 1524 1525 1526 1528 1530 1532 1534 1536 1537 1539 1541 1542 1544 1546 1548 1550 1551 1552 1554 1556 1559 1560 1562 1564 1565 1567 1568 1570 1571 1572 1573 1574 1575 1576 1577 1578 1578 1579
1522 1527 1528 1524 1518 1521 1525 1526 1523 1522 1522 1523 1524 1526 1527 1529 1531 1533 1534 1536 1538 1540 1541 1543 1544 1546 1548 1550 1552 1553 1555 1557 1559 1561 1562 1564 1565 1567 1568 1569 1571 1572 1573 1574 1575 1576 1576 1577 1578
1522 1525 1525 1526 1523 1524 1526 1532 1528 1524 1523 1523 1524 1524 1526 1528 1530 1532 1533 1535 1537 1538 1540 1541 1543 1544 1546 1548 1550 1552 1554 1555 1557 1559 1560 1562 1564 1565 1566 1568 1569 1570 1571 1572 1573 1574 1575 1575 1576
1525 1516 1518 1522 1532 1541 1535 1549 1533 1528 1525 1522 1522 1523 1525 1527 1529 1530 1532 1534 1535 1537 1539 1540 1541 1543 1545 1546 1548 1550 1552 1553 1555 1557 1558 1560 1562 1563 1565 1565 1567 1568 1569 1569 1571 1572 1572 1573 1574
1517 1515 1519 1525 1533 1543 1542 1548 1542 1530 1528 1523 1521 1522 1524 1526 1528 1529 1531 1533 1535 1536 1537 1539 1540 1542 1543 1545 1546 1548 1550 1552 1554 1555 1557 1558 1560 1561 1562 1563 1564 1565 1566 1567 1568 1569 1570 1571 1571
1513 1520 1527 1536 1544 1557 1548 1550 1547 1534 1526 1521 1520 1521 1523 1525 1526 1528 1531 1532 1534 1535 1536 1538 1539 1540 1542 1544 1545 1547 1548 1550 1551 1553 1555 1556 1557 1559 1560 1561 1562 1562 1563 1564 1565 1566 1567 1568 1568
1516 1534 1556 1558 1566 1563 1549 1550 1545 1525 1520 1519 1518 1520 1521 1523 1525 1527 1529 1531 1532 1534 1535 1537 1538 1539 1541 1542 1544 1545 1547 1548 1550 1551 1552 1554 1555 1556 1558 1559 1559 1560 1561 1561 1562 1563 1564 1565 1565
1519 1530 1555 1565 1569 1564 1552 1551 1535 1520 1517 1516 1517 1519 1521 1523 1524 1526 1528 1530 1532 1533 1534 1536 1537 1538 1540 1541 1543 1544 1546 1547 1548 1549 1550 1551 1552 1554 1555 1556 1557 1558 1558 1559 1559 1560 1561 1562 1562
1521 1530 1533 1553 1560 1565 1557 1544 1528 1519 1518 1517 1518 1519 1521 1523 1525 1526 1528 1530 1531 1533 1534 1535 1536 1538 1539 1540 1542 1543 1544 1545 1546 1547 1548 1549 1550 1551 1552 1553 1554 1555 1556 1556 1557 1557 1558 1559 1559
1513 1525 1540 1553 1567 1569 1557 1550 1542 1525 1521 1519 1519 1520 1521 1523 1525 1526 1528 1529 1531 1532 1533 1535 1536 1537 1538 1540 1541 1542 1543 1543 1544 1545 1546 1547 1548 1549 1550 1551 1552 1552 1553 1553 1554 1555 1555 1556 1556
1519 1527 1539 1552 1554 1568 1567 1554 1524 1521 1518 1518 1518 1519 1520 1522 1524 1526 1528 1529 1531 1532 1534 1535 1536 1537 1538 1539 1540 1541 1542 1543 1543 1544 1544 1545 1546 1547 1548 1549 1549 1550 1550 1551 1551 1552 1552 1552 1553
1508 1519 1530 1544 1553 1558 1561 1550 1516 1515 1515 1516 1517 1518 1520 1522 1524 1526 1528 1529 1531 1532 1533 1535 1535 1536 1538 1539 1540 1541 1541 1542 1542 1542 1543 1544 1544 1545 1546 1547 1547 1548 1548 1548 1549 1549 1550 1550 1550